Theta_e
349 354 363 363 363 363 364 364 364 365 365 365 364 364 365 364 364 364 364 364 363 362 362 363 363 363 363 363 362 362 362 362 361 361 359 359 359 358 361 360 359 355 359
353 357 364 364 364 363 363 363 363 363 364 364 364 364 364 363 362 362 363 363 362 362 362 362 362 362 362 362 361 362 362 361 361 361 360 360 358 359 360 358 358 356 359
353 358 360 364 365 364 364 363 364 364 364 363 364 364 364 363 363 363 364 363 364 363 362 362 362 362 362 362 362 361 361 361 362 360 360 353 354 359 358 359 359 359 358
354 355 359 365 365 364 364 364 364 363 363 364 363 362 364 364 364 364 363 363 362 361 362 362 358 357 359 360 361 360 361 361 361 358 352 351 353 359 358 358 357 357 357
353 356 360 364 364 363 363 363 363 361 359 362 364 363 362 364 364 364 364 363 361 360 359 359 358 359 358 357 355 356 356 357 359 358 350 346 346 355 357 357 357 357 356
354 358 363 365 364 363 362 361 361 361 359 358 361 361 361 363 364 363 362 360 358 357 355 355 355 355 356 357 357 357 357 359 356 353 345 352 351 358 358 358 358 356 357
354 357 359 366 364 362 361 360 363 363 361 358 357 360 359 362 362 362 360 359 357 355 355 357 357 355 355 356 356 357 360 360 349 348 349 348 350 361 358 357 357 354 354
355 357 359 365 364 361 363 364 363 364 363 361 357 358 359 360 360 360 359 358 356 354 354 357 356 354 355 356 357 360 360 362 351 350 351 351 356 359 358 356 355 356 355
356 354 356 358 358 362 363 363 362 360 359 358 357 358 359 359 358 358 358 358 356 355 354 355 356 357 358 360 361 364 363 360 339 345 353 352 360 358 356 358 355 355 357
353 354 354 355 356 353 356 362 362 361 361 358 359 359 359 359 359 358 363 363 356 356 355 353 354 356 361 362 363 365 364 362 347 339 346 351 361 358 355 355 356 358 356
350 350 352 352 352 351 354 357 363 362 363 362 360 360 360 352 352 355 358 359 360 359 355 358 360 362 363 360 362 365 362 353 348 339 343 356 362 358 356 355 355 355 356
344 347 350 350 350 350 354 352 353 355 355 354 354 353 356 355 354 357 359 363 366 366 369 364 367 363 353 350 347 344 348 345 339 336 341 358 360 358 357 358 357 356 355
345 348 348 348 350 350 345 348 348 349 352 353 348 352 351 354 352 354 353 354 357 367 348 353 347 349 351 350 349 343 343 343 341 335 338 359 361 360 359 359 359 357 357
344 346 344 349 349 349 347 347 345 348 348 351 340 344 341 347 349 354 350 353 352 351 339 350 344 348 345 348 347 345 347 342 346 344 341 354 360 361 360 361 360 358 358
343 342 338 344 347 346 347 346 346 346 345 343 338 336 336 346 347 353 348 350 352 349 347 344 346 345 345 348 349 345 344 344 346 349 347 352 357 360 362 362 361 359 359
343 339 338 345 348 348 345 344 346 341 339 337 347 334 342 343 338 352 343 347 346 347 346 341 342 344 342 348 342 343 343 342 343 348 350 346 355 359 360 362 363 362 361
342 342 345 347 350 346 343 341 339 340 341 339 344 349 347 339 342 350 349 351 351 348 347 340 341 340 339 348 346 346 344 345 344 345 347 345 348 360 360 361 363 363 364
342 344 346 351 349 346 347 347 348 352 346 345 346 351 344 342 350 346 347 350 348 345 348 343 342 344 339 342 343 343 341 345 344 342 345 344 342 350 356 361 362 362 364
346 344 343 347 347 347 347 350 349 348 346 345 348 352 350 349 350 344 344 346 348 342 350 349 346 344 340 338 341 342 343 339 342 347 344 345 345 349 345 347 358 362 364
347 344 342 345 344 346 349 351 350 348 347 350 347 349 350 349 347 344 345 346 348 345 348 346 343 346 346 345 348 348 344 343 340 344 345 347 343 342 345 341 339 344 358
347 343 341 344 343 346 346 345 344 345 350 347 350 350 349 347 351 351 349 349 352 349 347 346 344 342 341 342 339 339 342 340 338 341 342 342 343 343 344 345 343 343 350
345 344 342 345 345 347 345 345 348 349 346 350 346 350 352 352 349 351 350 351 352 351 345 346 347 343 341 343 336 336 330 334 336 339 340 340 339 342 346 346 345 344 349
344 344 344 347 348 348 347 348 349 350 348 346 345 348 349 350 350 349 347 348 347 352 349 349 349 347 346 346 344 339 330 326 332 338 341 338 338 338 339 341 343 347 352
344 345 346 347 346 346 347 347 344 342 341 343 344 345 345 349 352 352 348 346 343 348 348 349 354 348 347 343 346 347 341 340 334 332 336 340 341 343 338 340 337 341 348
343 344 347 346 344 345 347 347 347 343 345 345 341 338 340 340 350 353 348 344 339 346 347 346 347 346 348 346 345 345 344 343 340 335 334 335 338 340 342 342 337 336 336
344 346 348 347 347 347 348 348 346 344 343 341 340 340 341 344 344 348 347 342 343 346 346 347 347 347 347 346 346 347 346 342 340 337 333 337 336 342 341 341 342 343 339
Wind_Speed
4 5 9 12 13 13 13 13 13 13 13 13 14 14 15 15 15 16 15 14 13 13 13 13 13 14 15 15 15 16 16 15 15 15 14 13 12 13 12 13 12 9 13
6 4 9 13 14 14 14 13 13 13 12 13 13 14 14 14 14 14 14 13 13 12 12 12 12 13 13 14 14 15 15 15 14 14 13 14 14 13 13 12 12 9 11
8 6 8 11 14 14 13 13 12 12 11 12 12 13 13 14 14 13 13 13 13 12 12 11 10 11 11 11 12 14 13 13 13 13 11 4 5 13 12 12 11 12 11
9 5 6 11 12 13 13 12 13 12 11 11 11 11 11 13 13 13 13 12 12 10 10 9 8 8 8 9 8 9 9 10 13 12 4 3 7 10 11 11 11 10 10
8 5 9 12 12 12 12 13 12 11 11 10 11 11 12 12 12 12 11 10 10 9 8 6 5 5 6 7 6 5 3 4 6 5 4 4 3 8 10 10 10 10 9
8 5 10 12 12 11 11 12 11 10 11 11 10 9 9 10 11 11 10 9 8 7 5 4 4 3 3 3 3 3 2 4 4 6 6 6 4 9 10 10 10 9 9
7 6 7 12 12 11 11 11 10 11 12 11 10 9 9 9 9 9 8 7 6 5 4 3 3 4 2 1 0 1 4 5 5 6 5 5 5 9 9 9 9 9 10
8 5 6 11 12 12 10 10 10 11 11 10 9 9 9 9 8 8 7 6 5 4 4 4 4 2 1 3 6 8 9 7 5 4 5 5 8 9 10 9 9 8 9
7 6 4 4 8 11 10 9 9 10 9 9 9 9 9 8 7 7 6 5 4 3 3 5 5 4 7 10 12 12 10 8 1 2 6 4 10 11 11 9 8 8 7
7 6 6 5 4 3 4 9 9 8 8 8 8 8 7 6 6 5 4 2 2 2 3 3 3 3 5 6 8 8 8 8 2 5 3 3 10 12 11 11 10 9 8
6 5 5 4 4 3 4 6 7 8 8 8 7 7 3 0 2 4 4 5 6 5 2 1 2 3 7 12 10 9 2 2 3 3 3 12 14 14 13 13 13 12 10
7 5 5 5 5 4 4 3 3 3 1 2 4 4 3 3 4 6 3 8 8 8 5 1 3 12 9 3 4 8 3 3 1 3 2 12 14 15 16 16 15 15 13
10 6 6 6 6 4 2 2 1 0 1 3 3 4 1 2 3 3 0 1 3 5 5 3 7 3 2 1 2 3 4 5 3 3 4 12 12 14 13 13 13 15 15
10 10 8 7 5 3 2 3 4 3 2 3 3 5 5 1 4 5 2 4 3 5 3 3 3 2 4 4 5 4 5 6 3 3 3 7 14 16 15 15 14 14 14
9 8 9 7 5 5 6 4 4 3 3 4 2 3 5 2 4 4 3 2 2 5 4 4 4 4 3 5 4 2 1 4 4 2 3 9 15 17 18 16 15 16 16
8 9 6 7 7 6 4 4 6 3 3 2 2 2 4 2 3 2 4 2 1 5 6 5 4 4 2 3 6 6 5 3 7 3 3 5 16 17 19 17 16 17 17
8 8 9 8 8 7 6 5 2 1 3 3 3 6 4 3 4 0 4 4 4 5 6 4 4 4 4 3 6 5 7 5 7 8 3 4 6 15 19 18 17 18 18
9 12 8 7 7 8 5 4 4 2 3 3 3 2 4 7 4 4 4 3 2 4 8 4 5 4 4 4 4 5 5 5 10 11 6 5 5 6 14 19 16 17 19
12 12 8 7 7 6 5 3 1 3 1 4 4 4 5 2 5 3 2 3 2 3 3 5 3 4 4 4 5 7 6 6 10 10 13 12 8 7 7 9 15 15 17
11 10 8 7 7 6 3 1 2 2 3 1 0 3 2 4 2 2 3 1 2 3 3 1 2 4 3 4 7 8 10 8 10 9 9 7 6 7 8 7 5 8 18
10 9 8 9 7 4 2 1 1 1 0 4 3 6 4 5 5 5 3 3 3 3 2 1 1 1 3 1 1 4 4 4 4 4 4 5 8 11 10 8 4 3 3
14 11 8 8 8 5 3 2 2 2 3 3 1 5 5 4 4 5 4 3 4 3 2 2 2 1 2 1 1 1 3 6 3 5 4 6 11 5 5 6 6 7 6
14 12 11 10 12 7 6 2 1 3 3 3 1 3 3 5 5 4 4 5 4 3 1 3 3 1 1 2 1 2 3 3 3 4 7 5 6 3 5 6 7 7 8
15 11 11 11 11 8 8 4 5 4 3 2 2 1 2 3 2 4 5 4 1 3 5 3 3 2 2 3 3 3 4 4 3 5 3 5 7 9 7 8 5 4 6
13 11 9 9 9 6 7 5 2 3 4 2 2 0 3 1 2 3 5 5 5 3 2 4 4 4 2 2 3 3 2 2 5 4 6 4 4 5 6 5 5 5 5
13 11 10 10 6 7 6 4 6 7 6 3 1 1 3 2 3 5 5 5 5 4 4 4 5 5 5 4 4 4 4 4 3 4 4 5 5 8 5 6 7 8 6
Wind_Direction
200 164 132 120 121 119 110 107 102 99 97 97 94 91 93 98 101 106 105 106 105 103 102 106 107 107 106 108 113 113 111 111 113 107 107 107 121 128 118 112 107 111 116
152 158 132 127 120 114 110 108 106 103 102 99 99 101 102 106 104 106 112 109 104 103 100 102 109 108 111 113 117 115 117 122 116 111 109 99 106 139 119 122 122 120 114
137 143 129 127 122 117 112 110 111 109 109 111 107 107 108 110 111 113 114 112 106 105 106 104 101 107 110 110 108 114 119 124 123 116 110 91 104 121 124 130 128 124 128
140 141 138 128 125 122 120 116 113 113 112 109 108 113 111 116 112 113 113 114 110 110 106 103 106 103 106 105 104 106 122 133 134 127 119 120 118 126 133 136 131 133 135
128 138 141 132 125 123 119 114 116 113 114 111 111 114 118 116 116 114 116 104 102 104 105 107 112 111 109 111 125 118 134 161 198 209 118 117 115 137 140 140 146 145 143
129 130 137 130 126 123 125 124 122 130 125 123 122 119 116 113 119 114 112 112 111 110 110 123 138 130 115 135 149 161 212 239 211 172 140 149 140 153 155 161 158 148 141
127 136 131 132 132 131 128 125 124 126 131 129 130 130 126 125 122 121 125 124 118 108 99 109 139 137 135 165 227 37 348 342 120 108 133 148 165 150 159 164 156 170 151
129 122 132 137 140 137 135 132 122 116 132 128 134 140 139 140 141 145 145 140 130 106 81 72 76 90 319 326 338 2 7 53 124 137 156 157 166 165 169 174 178 191 155
133 113 104 140 149 147 137 125 113 116 125 134 145 154 156 156 165 168 167 167 143 124 94 73 50 9 356 353 355 2 358 357 57 201 177 181 172 173 177 185 195 202 175
134 136 156 163 138 123 117 123 121 120 124 142 154 165 165 171 188 200 193 218 196 184 163 132 128 68 25 354 337 332 338 337 283 232 205 206 187 184 188 190 203 211 200
148 159 160 153 146 156 143 153 144 146 152 160 162 167 170 347 285 272 247 220 224 229 209 222 15 20 18 359 348 330 278 290 270 215 241 201 194 194 195 198 204 213 216
158 163 164 169 176 206 178 145 153 187 171 42 6 0 0 303 293 283 281 270 251 241 223 241 43 45 35 355 35 358 331 324 255 157 293 232 209 205 201 200 204 211 215
166 160 186 181 189 207 6 157 200 150 128 73 45 116 83 14 323 250 8 269 239 256 35 345 94 136 115 299 34 337 328 323 57 96 353 270 241 221 227 230 223 220 217
162 168 187 188 190 230 192 190 199 143 138 130 230 128 100 41 25 12 230 218 179 70 129 49 112 52 295 243 70 39 338 315 115 121 185 252 257 250 227 225 232 237 241
157 182 191 164 166 220 217 204 213 163 178 142 178 301 144 48 47 14 344 354 131 110 136 161 227 91 271 40 56 282 200 301 337 150 233 231 237 247 248 231 226 234 240
149 190 177 168 176 175 153 163 214 123 236 148 195 236 60 112 351 102 220 100 288 122 173 158 194 99 275 43 12 313 283 94 278 237 178 248 246 234 241 240 234 233 233
165 158 167 165 150 149 158 138 107 208 208 219 229 167 166 205 249 129 29 24 10 85 153 105 48 28 344 291 226 296 316 322 286 297 235 254 270 254 241 234 231 234 232
152 160 165 163 149 141 151 147 207 250 188 234 265 277 219 202 161 59 61 11 359 35 132 142 132 142 224 244 261 276 285 302 280 273 280 248 251 241 252 240 239 233 237
164 160 158 151 159 157 152 176 180 80 1 194 216 228 245 273 115 114 92 353 327 28 111 155 196 163 184 223 248 261 254 261 261 257 258 266 260 246 254 250 241 233 235
169 166 149 157 168 161 146 62 28 88 164 142 236 137 97 345 347 168 110 60 53 119 76 14 180 219 173 208 228 242 252 233 248 237 244 248 262 262 249 241 226 236 234
173 168 162 156 182 154 131 122 3 263 70 27 55 91 64 71 55 31 22 348 74 84 107 186 191 334 316 287 317 316 319 208 269 238 252 253 264 272 255 258 265 256 254
173 180 166 172 171 181 156 154 185 143 130 124 323 62 49 64 49 79 64 25 348 326 359 343 358 289 269 28 248 152 332 322 2 255 268 260 244 273 289 275 248 246 248
177 179 174 172 172 176 172 133 40 60 50 31 49 76 54 51 84 87 74 49 6 320 315 356 339 53 312 322 192 227 341 264 336 316 305 297 304 298 270 268 276 261 241
188 178 169 164 162 174 165 142 177 183 131 235 183 96 79 50 65 92 68 60 46 8 19 19 15 345 9 296 325 197 229 205 242 312 296 308 315 321 315 313 297 254 244
182 176 167 163 162 161 174 158 137 108 107 144 27 17 98 65 37 53 64 55 13 20 333 356 328 318 255 226 217 284 301 247 214 213 294 305 315 297 297 293 287 280 272
181 167 153 144 117 68 89 83 138 143 143 149 155 58 24 52 23 39 12 45 37 4 9 356 356 329 307 288 271 245 222 238 259 241 261 280 262 291 276 294 304 307 295